Lid_Strength_Index
3 3 3 3 3 2 3 2 4 5 4 4 4 5 5 5 5 5 5 5 5 5 5 5 5 4 4 6 7 3 -2 -2 2 3 4 4 4 4 6 5 4 5 5 4 5 5 4
3 3 3 3 3 3 2 2 2 4 5 3 4 4 4 5 5 5 5 5 5 5 6 5 5 4 6 10 4 2 1 1 1 3 4 3 3 3 4 5 5 4 4 4 4 4 4
4 4 4 4 3 3 4 4 3 3 2 3 3 3 3 4 4 4 4 4 4 4 5 4 4 4 6 7 2 1 3 4 4 3 4 4 3 4 4 6 4 4 6 5 5 5 5
6 6 6 5 5 4 4 4 4 4 3 3 3 3 3 3 3 4 3 4 4 4 4 3 3 3 7 3 1 3 2 2 2 2 4 3 3 4 4 4 4 6 6 8 5 5 4
6 6 6 6 6 6 5 5 4 4 4 4 3 3 3 3 3 3 3 3 3 3 3 3 3 4 7 2 4 2 2 5 4 3 2 3 3 6 5 6 7 6 9 8 7 5 5
5 5 5 5 6 5 6 6 6 5 4 4 4 4 3 3 3 3 3 3 3 3 1 1 3 5 4 6 4 3 2 3 4 4 5 6 5 7 6 7 11 9 9 8 8 6 6
5 4 4 4 5 5 5 6 6 6 5 5 4 4 4 4 3 4 4 4 5 4 3 6 6 6 5 4 3 4 3 3 4 5 8 7 8 9 7 6 6 7 7 8 7 6 6
5 4 4 4 4 4 4 4 5 5 6 6 5 4 4 4 4 3 4 6 6 6 8 3 4 4 3 4 5 5 2 5 6 7 6 6 8 6 5 6 6 7 8 8 6 6 6
5 4 4 4 4 4 4 4 4 4 5 5 5 5 5 4 4 4 5 5 3 4 8 7 6 5 5 4 6 5 4 5 6 7 6 7 6 5 6 6 7 7 8 8 8 6 6
5 5 5 4 4 4 4 4 4 4 4 5 5 5 4 4 6 5 5 4 4 4 10 9 7 6 5 5 7 4 4 5 6 8 6 6 5 6 6 7 6 9 6 7 7 8 11
5 5 4 4 4 4 4 3 3 3 4 4 4 5 4 4 6 5 5 4 4 5 14 6 6 3 5 6 6 6 4 5 7 7 6 7 6 7 7 7 6 7 6 6 7 8 9
5 5 4 4 3 3 3 2 2 2 2 3 4 4 4 5 5 4 3 4 5 11 15 8 6 7 7 7 6 5 6 4 4 6 6 6 4 5 6 5 5 5 6 7 7 8 12
5 4 3 2 0 -0 -0 -0 -0 -0 -0 0 1 2 3 4 5 3 4 5 12 14 8 9 8 7 7 8 7 6 7 8 8 10 9 7 6 5 5 7 5 6 8 12 13 13 13
4 3 1 -0 -1 -1 -1 -1 -1 -1 -1 -1 -0 1 1 2 1 3 4 9 14 11 10 7 7 7 8 7 8 7 8 9 6 7 8 10 10 7 5 6 7 7 8 11 15 14 12
3 1 -0 -0 -0 -1 -1 -1 -1 -1 -1 -1 -1 0 1 0 -1 1 6 13 13 11 8 8 7 9 9 7 7 7 8 8 7 6 9 9 9 6 5 5 6 7 9 7 10 9 11
1 1 0 -0 -1 -1 -1 -1 -1 -1 -1 -0 1 3 3 0 -1 2 9 12 11 9 8 6 9 7 9 8 8 8 8 7 7 6 5 7 10 6 6 5 5 6 6 10 9 14 15
1 1 0 -0 -1 -1 -1 -1 -1 -1 -1 -0 3 6 2 -1 0 6 12 10 9 7 6 9 9 8 8 8 7 8 8 6 6 6 5 6 7 8 6 8 8 7 8 8 8 9 13
1 0 -0 -1 -1 -1 -1 -1 -1 -1 -0 1 5 9 0 -0 9 8 11 8 7 8 6 7 8 9 9 7 8 8 8 7 5 5 7 6 7 10 8 6 5 6 7 7 11 12 10
1 0 -0 -1 -1 -1 -1 -1 -1 -1 0 2 6 5 -0 1 12 10 7 7 7 7 7 8 9 8 7 8 10 7 7 5 5 5 7 6 8 11 10 8 6 8 7 7 7 8 11
0 -0 -1 -1 -1 -1 -1 -1 -1 -0 0 1 5 10 6 5 6 9 9 8 8 5 6 7 8 8 9 9 7 8 7 6 5 5 5 6 7 10 12 10 8 9 8 7 8 11 10
0 -0 -0 -1 -1 -1 -1 -1 -1 -1 -0 1 4 7 5 10 9 8 8 8 9 8 6 6 8 8 9 9 8 8 7 6 5 5 5 6 10 8 8 7 7 8 8 8 8 8 10
0 -0 -0 -0 -1 -1 -1 -1 -1 -1 -1 2 7 6 3 7 6 8 8 8 9 8 8 8 8 8 8 9 8 9 8 7 7 6 6 6 10 8 9 7 7 8 8 7 8 7 8
-0 -0 -0 -0 -1 -1 -1 -1 -1 -1 -0 2 1 1 5 7 8 9 9 8 8 7 6 6 7 7 9 8 8 6 6 6 6 6 7 7 9 10 11 8 8 10 8 8 7 7 7
-0 -0 -0 -0 -1 -1 -1 -1 -1 -1 -0 1 1 2 7 10 9 9 7 7 8 7 7 6 5 6 6 5 6 5 6 6 6 6 5 8 9 8 11 9 14 8 5 6 7 6 6
-0 -0 -1 -0 -1 -1 -1 -1 -1 -1 -1 1 1 3 6 9 7 7 7 7 6 6 7 6 5 4 4 7 9 10 9 9 7 6 6 6 8 10 12 12 9 8 7 7 7 8 5
0 -0 -0 -0 -1 -1 -1 -1 -1 -1 -1 -0 0 0 4 8 7 5 7 6 8 8 7 6 3 2 5 8 10 15 14 10 10 8 6 6 7 10 10 13 14 8 6 4 5 9 5
0 -0 -0 -0 -1 -1 -1 -1 -1 -1 -1 -0 1 -1 3 7 4 5 8 9 6 7 8 6 5 5 5 9 14 14 13 8 12 11 10 10 10 11 11 12 9 6 5 4 10 8 5
0 0 0 -0 -0 -1 -1 -1 -1 -1 -1 -0 1 -1 2 5 4 3 4 6 6 7 10 6 6 6 7 11 12 13 12 10 10 8 9 10 11 11 10 11 12 5 5 8 5 4 4
0 0 1 0 -0 -1 -1 -1 -1 -1 -1 -1 2 -1 -1 4 4 1 2 2 2 4 6 6 7 7 5 7 9 10 12 10 11 12 7 10 8 9 8 9 5 4 4 4 3 4 4